Location: Unspecified
(51.5147°N, 7.4673°E)
Time: 13:18:37
(UTC+01:00)

A-11 Canister half - Pass Details

Date: 21 February 2026
Orbit: 1513 x 1686 km, 47.2° (Epoch: 17 March)

Event Time Altitude Azimuth Distance (km) Brightness Sun altitude
Rises 18:17:04 0° 178° (S) 4,923 11.8 -4.0°
Reaches altitude 10° 18:21:58 10° 158° (SSE) 3,944 11.0 -4.8°
Maximum altitude 18:27:17 16° 126° (SE) 3,498 10.5 -5.6°
Drops below altitude 10° 18:32:34 10° 94° (E) 3,934 10.5 -6.4°
Enters shadow 18:34:02 - 87° (E) 4,185 10.6 -6.6°
Sets 18:37:24 0° 74° (ENE) 4,904 - -7.1°
